SL-23 DEB, 35577

Orbit data source: Space-Track

SL-23 DEB, 35577 is space debris in HEO originally from a launch on Thu, 26 Feb 2009 UTC launched from the Tyuratam Missile And Space Complex (TTMTR). Debris objects in space refer to the collection of defunct objects orbiting the Earth. Examples of debris include non-operational satellites, rocket bodies, and fragments generated from explosions, collisions, or faulty payload assembly.

Loading next visibility...
Identifier
35577, 2009-009C
Orbit
HEO
Last TLE update
11 months ago
Origin
Manufacturer
Unknown
Mission
Spacecraft
Bus & Motor
Unknown
Mass
Unknown
Launch date (UTC)
2009-02-26 (16 years ago)
Launch vehicle
Unknown
Launch site
Tyuratam Missile And Space Complex (TTMTR)
Object type
Payload
Rocket body
Debris
Shape & HBR
Unknown
Radar Cross Section
Medium (>0.1 m² and <1 m²)

Expand to show TLE details & history

TLE from 11 months ago
0 SL-23 DEB
1 35577U 09009C   24156.38990581 -.00000056  00000-0  00000+0 0  9997
2 35577  35.1972 100.4794 6848400 239.7632 343.2146  2.20109299121453
Epoch: 2024-06-04T09:21Z
Definitive object data (Epoch: 2024-06-04T09:21:27.861Z)
Latitude
14.59616°
Longitude
-134.90013°
Altitude
6,263.033 km
Speed
6.863 km/s
True Right ascension
17h 15m 06s
True Declination
14° 32' 56"
Sunlit
Object was in daylight at TLE epoch
Visualization TLE readout
Latitude
-29.09196°
Longitude
-69.25585°
Altitude
3,107.813 km
Speed
8.253 km/s
Apparent Right ascension
23h 44m 49s
Apparent Declination
-43° 04' 36"
Sunlit
Object is in daylight
Visualization observer readout
Local Sidereal Time
15:57:11
Azimuth
115.575° SE
Elevation
-43.771°
Doppler factor
1
Orbital elements
Apogee altitude
35,685.644 km
Perigee altitude
1,490.16 km
Semi-major axis
24,966.039 km
Eccentricity
0.68484
Inclination
35.1972°
RAAN
100.4794°
Arg. of periapsis
239.7632°
True anomaly
273.77825°
Mean anomaly
343.2146°
Eccentric anomaly
315.91587°
Mean motion
0.5502 °/min
BSTAR
Unknown
Orbital period
654.31 mins
Loading maneuver chart data...
Loading SW <> Apogee altitude chart data...
Loading historical data...
Loading historical data...
Loading historical data...
Loading historical data...
Loading historical data...
Loading historical data...
Loading historical data...
Other satellites on launch #9 in the year 2009 (2009-02-26 UTC)

SL-23 DEB Visibility forecast

Observer location: undefined°, undefined°

Span
Click to sort rows by Start time (UTC) header in descending order
Start Az.
Max El. time (UTC)
Max El. Az.
Max El.
End time (UTC)
End Az.
50 mins2025-05-09 19:05:08.132Z200.825° SSW2025-05-09 19:13:08.132Z130.252° SE34.31°2025-05-09 19:55:08.132Z72.704° E
110 mins2025-05-10 01:01:08.132Z110.895° ESE2025-05-10 02:02:08.132Z120.642° SE11.201°2025-05-10 02:51:08.132Z127.978° SE
15 mins2025-05-10 07:33:08.132Z280.496° WNW2025-05-10 07:48:08.132Z277.913° WNW10.495°2025-05-10 07:48:08.132Z277.913° WNW
|